This is the latest recevied weather packets stored in our database for station/object SR9WXJ. If no packets are shown the sender has not sent any weather packets the latest 10 day(s).
| Time | Temp. | Humidity | Pressure | Rain* | Wind** | Luminosity | Snow |
|---|---|---|---|---|---|---|---|
| 1777642041 | 15.56° C | 100% | 805.7 hPa | - | - | - | - |
| 1777641731 | 16.11° C | 100% | 805.7 hPa | - | - | - | - |
| 1777641419 | 15.56° C | 100% | 805.7 hPa | - | - | - | - |
| 1777641109 | 15° C | 100% | 806.5 hPa | - | - | - | - |
| 1777640498 | 15° C | 100% | 806.5 hPa | - | - | - | - |
| 1777640186 | 15° C | 100% | 807.3 hPa | - | - | - | - |
| 1777639876 | 15.56° C | 100% | 807.3 hPa | - | - | - | - |
| 1777639564 | 15° C | 100% | 807.3 hPa | - | - | - | - |
| 1777639254 | 15.56° C | 100% | 808.2 hPa | - | - | - | - |
| 1777638953 | 15.56° C | 100% | 808.2 hPa | - | - | - | - |
| 1777638642 | 15° C | 100% | 808.2 hPa | - | - | - | - |
| 1777638331 | 15° C | 100% | 808.2 hPa | - | - | - | - |
| 1777638022 | 14.44° C | 100% | 808.2 hPa | - | - | - | - |
| 1777637709 | 13.89° C | 100% | 808.2 hPa | - | - | - | - |
| 1777637409 | 13.89° C | 100% | 808.2 hPa | - | - | - | - |
| 1777637098 | 14.44° C | 100% | 808.2 hPa | - | - | - | - |
| 1777636787 | 13.89° C | 100% | 808.2 hPa | - | - | - | - |
| 1777636476 | 13.89° C | 100% | 808.2 hPa | - | - | - | - |
| 1777636165 | 15° C | 100% | 808.4 hPa | - | - | - | - |
| 1777635865 | 13.89° C | 100% | 808.4 hPa | - | - | - | - |
| 1777635554 | 13.33° C | 100% | 808.4 hPa | - | - | - | - |
| 1777635243 | 13.33° C | 100% | 808.5 hPa | - | - | - | - |
| 1777634932 | 13.89° C | 100% | 808.5 hPa | - | - | - | - |
| 1777634621 | 13.89° C | 100% | 808.5 hPa | - | - | - | - |
| 1777634310 | 13.33° C | 100% | 809.1 hPa | - | - | - | - |
* Rain since midnight (hover to see other rain measurements)
** Current wind speed in m/s (hover to see current wind gust speed)